Location: Unspecified
(0.0000°N, 0.0000°E)
Time: 05:19:05
(UTC+00:00)

PAYLOAD C - Visible Passes

Search period start: 19 June 2024 00:00
Search period end: 29 June 2024 00:00
Orbit: 807 x 822 km, 98.7° (Epoch: 18 June)

Date Brightness Start Highest point End Pass type
(mag) Time Alt. Az. Time Alt. Az. Time Alt. Az.
19 Jun ? 04:49:47 10° ENE 04:52:35 14° ESE 04:55:23 10° SE visible
19 Jun ? 19:09:05 10° SW 19:11:04 12° WSW 19:13:04 10° W visible
20 Jun ? 18:44:45 10° SSW 18:48:52 23° WSW 18:52:59 10° NW visible
21 Jun ? 18:21:39 10° S 18:26:40 42° WSW 18:31:39 10° NNW visible
22 Jun ? 05:20:46 10° NE 05:25:35 36° ESE 05:30:25 10° SSE visible
23 Jun ? 04:59:37 10° ENE 05:03:22 20° ESE 05:07:08 10° SSE visible
24 Jun ? 18:56:19 10° SW 18:59:40 17° WSW 19:03:00 10° WNW visible
25 Jun ? 18:32:47 10° SSW 18:37:27 31° WSW 18:42:05 10° NW visible
26 Jun ? 05:31:16 10° NNE 05:36:22 48° ESE 05:41:30 10° S visible
27 Jun ? 05:09:46 10° NE 05:14:08 26° ESE 05:18:32 10° SSE visible
28 Jun ? 04:49:11 10° ENE 04:51:57 14° ESE 04:54:41 10° SE visible
28 Jun ? 19:08:21 10° SW 19:10:25 12° WSW 19:12:29 10° W visible
